Weather History for Owatonna, MN

Change the Weather History Date:

Wednesday, November 21, 2012

  Actual Average Record
Temperature  
Mean Temperature 58 °F -  
Max Temperature 71 °F 36 °F 71 °F (2012)
Min Temperature 44 °F 20 °F -6 °F (1964)
Degree Days  
Heating Degree Days 8    
Growing Degree Days 8 (Base 50)    
Moisture  
Dew Point 32 °F    
Average Humidity 41    
Maximum Humidity 58    
Minimum Humidity 17    
Precipitation  
Precipitation 0.00 in - - ()
Sea Level Pressure  
Sea Level Pressure 29.91 in    
Wind  
Wind Speed 14 mph (South)    
Max Wind Speed 23 mph    
Max Gust Speed 28 mph    
Visibility 10 miles    
Events      
Averages and records for this station are not official NWS values.
T = Trace of Precipitation, MM = Missing Value Source: NWS Daily Summary

Daily Weather History Graph

Daily Weather History Graph

Search for Another Location

Airport:

Trip Planner

Search our weather history database for the weather conditions in past years. The results will help you decide how hot, cold, wet, or windy it might be!

Date:

Astronomy

Nov. 21, 2012 Rise Set
Actual Time 7:16 AM CST 4:40 PM CST
Civil Twilight 6:44 AM CST 5:12 PM CST
Nautical Twilight 6:09 AM CST 5:48 PM CST
Astronomical Twilight 5:35 AM CST 6:22 PM CST
Moon 1:09 PM CST (11/21) 12:23 AM CST (11/21)
Length of Visible Light 10h 27m
Length of Day
9h 24m
First Quarter, 62% of the Moon is Illuminated
Nov 21
First Quarter
Nov 28
Full
Dec 6
Last Quarter
Dec 13
New
Dec 19
First Quarter

Hourly Weather History & Observations

Time (CST) Temp. Windchill Dew Point Humidity Pressure Visibility Wind Dir Wind Speed Gust Speed Precip Events Conditions
12:14 AM 46.4 °F 40.7 °F 30.2 °F 53% 30.06 in 10.0 mi South 12.7 mph - N/A   Clear
12:34 AM 46.4 °F 40.7 °F 30.2 °F 53% 30.06 in 10.0 mi SSE 12.7 mph - N/A   Clear
12:54 AM 46.4 °F 40.4 °F 30.2 °F 53% 30.05 in 10.0 mi SSE 13.8 mph - N/A   Clear
1:14 AM 46.4 °F 40.4 °F 30.2 °F 53% 30.04 in 10.0 mi SSE 13.8 mph - N/A   Clear
1:34 AM 46.4 °F 40.7 °F 30.2 °F 53% 30.04 in 10.0 mi SSE 12.7 mph - N/A   Clear
1:53 AM 46.4 °F 40.7 °F 30.2 °F 53% 30.05 in 10.0 mi South 12.7 mph - N/A   Clear
2:14 AM 44.6 °F 38.1 °F 30.2 °F 57% 30.03 in 10.0 mi SSE 13.8 mph - N/A   Clear
2:34 AM 46.4 °F 40.4 °F 30.2 °F 53% 30.03 in 10.0 mi SSE 13.8 mph - N/A   Clear
2:54 AM 46.4 °F 40.1 °F 30.2 °F 53% 30.02 in 10.0 mi SSE 15.0 mph - N/A   Clear
3:14 AM 44.6 °F 38.1 °F 30.2 °F 57% 30.01 in 10.0 mi SSE 13.8 mph - N/A   Clear
3:33 AM 44.6 °F 38.1 °F 30.2 °F 57% 30.01 in 10.0 mi SSE 13.8 mph - N/A   Clear
3:54 AM 46.4 °F 40.4 °F 30.2 °F 53% 30.00 in 10.0 mi SSE 13.8 mph - N/A   Clear
4:13 AM 46.4 °F 39.8 °F 30.2 °F 53% 29.99 in 10.0 mi South 16.1 mph - N/A   Clear
4:34 AM 48.2 °F - 30.2 °F 50% 29.98 in 10.0 mi South 16.1 mph 19.6 mph N/A   Clear
4:54 AM 48.2 °F - 30.2 °F 50% 29.98 in 10.0 mi South 13.8 mph - N/A   Clear
5:14 AM 48.2 °F - 30.2 °F 50% 29.98 in 10.0 mi South 13.8 mph 21.9 mph N/A   Clear
5:34 AM 48.2 °F - 30.2 °F 50% 29.98 in 10.0 mi South 15.0 mph 20.7 mph N/A   Clear
5:54 AM 48.2 °F - 30.2 °F 50% 29.98 in 10.0 mi South 12.7 mph - N/A   Clear
6:14 AM 48.2 °F - 30.2 °F 50% 29.98 in 10.0 mi South 12.7 mph - N/A   Clear
6:34 AM 48.2 °F - 32.0 °F 54% 29.98 in 10.0 mi South 9.2 mph - N/A   Clear
6:54 AM 46.4 °F 41.1 °F 32.0 °F 57% 29.97 in 10.0 mi South 11.5 mph - N/A   Clear
7:14 AM 48.2 °F - 32.0 °F 54% 29.98 in 10.0 mi South 10.4 mph - N/A   Clear
7:34 AM 48.2 °F - 32.0 °F 54% 29.98 in 10.0 mi South 10.4 mph - N/A   Clear
7:54 AM 48.2 °F - 33.8 °F 58% 29.98 in 10.0 mi South 10.4 mph - N/A   Clear
8:14 AM 50.0 °F - 33.8 °F 54% 29.98 in 10.0 mi South 11.5 mph - N/A   Clear
8:33 AM 51.8 °F - 33.8 °F 50% 29.97 in 10.0 mi South 11.5 mph - N/A   Clear
8:54 AM 53.6 °F - 33.8 °F 47% 29.98 in 10.0 mi SSW 10.4 mph - N/A   Clear
9:14 AM 57.2 °F - 33.8 °F 41% 29.98 in 10.0 mi SSW 13.8 mph 17.3 mph N/A   Clear
9:34 AM 57.2 °F - 33.8 °F 41% 29.98 in 10.0 mi SSW 17.3 mph - N/A   Clear
9:54 AM 57.2 °F - 33.8 °F 41% 29.97 in 10.0 mi SSW 16.1 mph 21.9 mph N/A   Clear
10:13 AM 57.2 °F - 33.8 °F 41% 29.97 in 10.0 mi SSW 13.8 mph - N/A   Clear
10:34 AM 57.2 °F - 33.8 °F 41% 29.98 in 10.0 mi SSW 17.3 mph - N/A   Clear
10:54 AM 60.8 °F - 33.8 °F 36% 29.96 in 10.0 mi SSW 17.3 mph - N/A   Clear
11:14 AM 60.8 °F - 32.0 °F 34% 29.95 in 10.0 mi SSW 16.1 mph - N/A   Clear
11:34 AM 60.8 °F - 32.0 °F 34% 29.94 in 10.0 mi SSW 16.1 mph - N/A   Clear
11:55 AM 62.6 °F - 32.0 °F 32% 29.93 in 10.0 mi SSW 15.0 mph 19.6 mph N/A   Clear
12:14 PM 64.4 °F - 30.2 °F 28% 29.92 in 10.0 mi SSW 18.4 mph - N/A   Clear
12:33 PM 64.4 °F - 30.2 °F 28% 29.91 in 10.0 mi SSW 18.4 mph - N/A   Clear
12:54 PM 66.2 °F - 30.2 °F 26% 29.90 in 10.0 mi South 17.3 mph - N/A   Clear
1:14 PM 68.0 °F - 30.2 °F 24% 29.89 in 10.0 mi SSW 16.1 mph 21.9 mph N/A   Clear
1:34 PM 69.8 °F - 26.6 °F 20% 29.88 in 10.0 mi SSW 17.3 mph - N/A   Clear
1:54 PM 71.6 °F - 24.8 °F 17% 29.88 in 10.0 mi SSW 23.0 mph 27.6 mph N/A   Clear
2:19 PM 71.6 °F - 26.6 °F 19% 29.87 in 10.0 mi SSW 17.3 mph 23.0 mph N/A   Clear
2:34 PM 71.6 °F - 26.6 °F 19% 29.86 in 10.0 mi SSW 17.3 mph 20.7 mph N/A   Clear
2:54 PM 71.6 °F - 26.6 °F 19% 29.86 in 10.0 mi South 13.8 mph 20.7 mph N/A   Clear
3:14 PM 71.6 °F - 26.6 °F 19% 29.85 in 10.0 mi South 15.0 mph - N/A   Clear
3:34 PM 71.6 °F - 26.6 °F 19% 29.85 in 10.0 mi South 11.5 mph 16.1 mph N/A   Clear
3:59 PM 71.6 °F - 28.4 °F 20% 29.85 in 10.0 mi South 12.7 mph - N/A   Clear
4:14 PM 69.8 °F - 28.4 °F 21% 29.84 in 10.0 mi SSW 17.3 mph - N/A   Clear
4:34 PM 66.2 °F - 30.2 °F 26% 29.84 in 10.0 mi South 11.5 mph - N/A   Clear
4:54 PM 66.2 °F - 30.2 °F 26% 29.84 in 10.0 mi South 11.5 mph - N/A   Clear
5:14 PM 66.2 °F - 33.8 °F 30% 29.83 in 10.0 mi South 11.5 mph - N/A   Clear
5:34 PM 66.2 °F - 33.8 °F 30% 29.83 in 10.0 mi South 11.5 mph - N/A   Clear
5:54 PM 64.4 °F - 33.8 °F 32% 29.83 in 10.0 mi SSE 11.5 mph - N/A   Clear
6:14 PM 64.4 °F - 33.8 °F 32% 29.82 in 10.0 mi SSE 12.7 mph - N/A   Clear
6:34 PM 62.6 °F - 33.8 °F 34% 29.82 in 10.0 mi SSE 12.7 mph 19.6 mph N/A   Clear
6:54 PM 62.6 °F - 33.8 °F 34% 29.82 in 10.0 mi SSE 12.7 mph - N/A   Clear
7:14 PM 62.6 °F - 33.8 °F 34% 29.82 in 10.0 mi South 13.8 mph - N/A   Clear
7:34 PM 60.8 °F - 33.8 °F 36% 29.82 in 10.0 mi South 16.1 mph 20.7 mph N/A   Clear
7:54 PM 60.8 °F - 33.8 °F 36% 29.80 in 10.0 mi SSE 16.1 mph 23.0 mph N/A   Clear
8:14 PM 60.8 °F - 35.6 °F 39% 29.80 in 10.0 mi South 18.4 mph 26.5 mph N/A   Clear
8:34 PM 60.8 °F - 35.6 °F 39% 29.79 in 10.0 mi SSE 16.1 mph - N/A   Clear
8:54 PM 59.0 °F - 37.4 °F 45% 29.79 in 10.0 mi South 17.3 mph 21.9 mph N/A   Clear
9:14 PM 59.0 °F - 37.4 °F 45% 29.79 in 10.0 mi SSE 18.4 mph 26.5 mph N/A   Clear
9:34 PM 59.0 °F - 37.4 °F 45% 29.78 in 10.0 mi South 18.4 mph 24.2 mph N/A   Clear
9:54 PM 59.0 °F - 37.4 °F 45% 29.78 in 10.0 mi SSE 18.4 mph 23.0 mph N/A   Clear
10:14 PM 59.0 °F - 35.6 °F 42% 29.77 in 10.0 mi South 16.1 mph - N/A   Clear
10:34 PM 57.2 °F - 35.6 °F 44% 29.76 in 10.0 mi South 18.4 mph 25.3 mph N/A   Clear
10:54 PM 57.2 °F - 35.6 °F 44% 29.76 in 10.0 mi South 19.6 mph 24.2 mph N/A   Clear
11:14 PM 57.2 °F - 35.6 °F 44% 29.75 in 10.0 mi South 18.4 mph 25.3 mph N/A   Clear
11:34 PM 57.2 °F - 35.6 °F 44% 29.75 in 10.0 mi South 18.4 mph 25.3 mph N/A   Clear
11:54 PM 57.2 °F - 35.6 °F 44% 29.74 in 10.0 mi South 17.3 mph 21.9 mph N/A   Clear